Regional Weather Roundup
Issued by NWS

Home | Current Version | Previous Version | Graphics & Text | Print | Product List | Glossary On
Versions: 1 2 3 4 5 6 7 8 9 10 11 12 13 14 15 16 17 18 19 20 21 22 23 24 25 26 27 28 29 30 31 32 33 34 35 36 37 38 39 40 41 42 43 44 45 46 47 48 49 50
000
ASUS43 KLOT 031603
RWRIL

ILLINOIS REGIONAL WEATHER ROUNDUP
NATIONAL WEATHER SERVICE CHICAGO/ROMEOVILLE IL
1000 AM CST SAT DEC 03 2016

NOTE: "FAIR" INDICATES FEW OR NO CLOUDS BELOW 12,000 FEET WITH NO
SIGNIFICANT WEATHER AND/OR OBSTRUCTIONS TO VISIBILITY.

* THESE STATIONS ARE NOT UNDER NWS QUALITY CONTROL. THEY ALSO MAY NOT
  REPORT WEATHER SUCH AS PRECIPITATION OR FOG.

ILZ001-002-007-009-015-016-024-031700-
NORTHWEST ILLINOIS

CITY           SKY/WX    TMP DP  RH WIND       PRES   REMARKS
MOLINE         CLOUDY    36  23  59 CALM      30.37R
STERLING*      CLOUDY    33  25  72 NW6       30.38R WCI  28
SAVANNA*       CLOUDY    34  25  69 NE3       30.34S
$$

ILZ003-004-008-010-011-017-018-031700-
NORTH CENTRAL ILLINOIS

CITY           SKY/WX    TMP DP  RH WIND       PRES   REMARKS
ROCKFORD       CLOUDY    32  23  69 NW8       30.36S WCI  25
FREEPORT*      CLOUDY    31  25  76 NE3       30.34F
ROCHELLE*      CLOUDY    32  25  75 NW6       30.35R WCI  26
$$

ILZ005-006-012>014-019>023-031700-
NORTHEAST ILLINOIS

CITY           SKY/WX    TMP DP  RH WIND       PRES   REMARKS
CHICAGO-OHARE  CLOUDY    32  22  66 N5        30.33S WCI  27
CHICAGO-MIDWAY CLOUDY    34  21  59 W7        30.35R WCI  28
AURORA         CLOUDY    33  24  69 NW8       30.36R WCI  26
LANSING*       CLOUDY    33  26  73 NW5       30.36R WCI  29
JOLIET*        CLOUDY    34  25  69 NW5       30.37R WCI  30
WAUKEGAN       CLOUDY    33  24  69 N5        30.32S WCI  29
DUPAGE AIRPORT CLOUDY    32  22  66 W8        30.34R WCI  25
KANKAKEE*      CLOUDY    34  26  72 W5        30.35F WCI  30
WHEELING       CLOUDY    32  22  66 NW7       30.34F WCI  26
MORRIS*        CLOUDY    33  26  74 NW3       30.35R
ROMEOVILLE*    CLOUDY    32  27  80 NW9       30.36R WCI  24
NORTHERLY ISL    N/A     34  22  61 NE7         N/A  WCI  28
$$

LMZ740>746-031700-
SOUTHERN LAKE MICHIGAN

STATION/POSITION SKY/WX   TEMP    WIND        PRES    VSBY  WAVE
                          AIR SEA DIR/SP/G                  HT/PER
                          (F)     (DEG/KT/KT) (MB)    (MI)  (FT/S)
SOUTHERN BUOY              34 49  270/ 10/ 14 1027.3F         2/ 5
HARRISON CRIB              33     330/  9/ 10   N/A
BURNHAM HARBOR             34     230/  2/  9   N/A
CALUMET HARBOR             33     330/  5/ 10 1026.3F
BURNS HARBOR               35     310/  5/  7 1027.4F
MICHIGAN CITY              35     250/  4/  7   N/A
$$

ILZ025>027-034>036-040-047-049-050-058-095>099-031700-
WEST-CENTRAL ILLINOIS

CITY           SKY/WX    TMP DP  RH WIND       PRES   REMARKS
QUINCY         CLOUDY    37  31  78 E8        30.37R WCI  31
GALESBURG*     CLOUDY    34  27  74 N8        30.36S WCI  28
MACOMB*        PTSUNNY   36  29  78 E5        30.40R WCI  32
JACKSONVILLE*  CLOUDY    36  31  83 E8        30.38F WCI  30
PITTSFIELD*    CLOUDY    38  34  87 NE5       30.37F WCI  34
$$

ILZ028>032-037-038-041>044-048-051>054-059>061-031700-
CENTRAL ILLINOIS

CITY           SKY/WX    TMP DP  RH WIND       PRES   REMARKS
PONTIAC        CLOUDY    34  29  82 N8        30.37S WCI  27
BLOOMINGTON    MOSUNNY   34  26  72 N7        30.39R WCI  28
DECATUR        MOSUNNY   38  29  70 NE3       30.40R
PEORIA         CLOUDY    36  26  67 N7        30.39R WCI  30
LACON*         CLOUDY    33  26  74 N8        30.37R WCI  26
LINCOLN*       MOSUNNY   37  29  73 CALM      30.41R
SPRINGFIELD    CLOUDY    39  28  64 E5        30.40R
TAYLORVILLE    CLOUDY    38  30  74 E5        30.38F WCI  34
$$

ILZ033-039-045-046-055>057-062-063-031700-
EAST-CENTRAL ILLINOIS

CITY           SKY/WX    TMP DP  RH WIND       PRES   REMARKS
CHAMPAIGN      MOSUNNY   36  25  64 NW5       30.40R WCI  32
RANTOUL*       PTSUNNY   36  29  74 NW3       30.39R
MATTOON        CLOUDY    38  27  64 CALM      30.38R
PARIS*         PTSUNNY   36  29  74 N6        30.40R WCI  31
$$

ILZ079-100>102-031700-
SOUTHWEST ILLINOIS

CITY           SKY/WX    TMP DP  RH WIND       PRES   REMARKS
ALTON          CLOUDY    37  34  87 SE6       30.39R WCI  33
BELLEVILLE     MOSUNNY   36  36  99 S1        30.37S
CAHOKIA*       MOSUNNY   38  33  82 SE3       30.38S
SPARTA*        CLOUDY    37  32  84 CALM      30.38F
$$

ILZ064>066-069>071-074>076-080>082-084>086-088>090-092>094-031700-
SOUTH-CENTRAL ILLINOIS

CITY           SKY/WX    TMP DP  RH WIND       PRES   REMARKS
CARBONDALE     CLOUDY    38  35  89 CALM      30.38S
CAIRO*         CLOUDY    41  34  74 E7        30.38S
EFFINGHAM*     MOSUNNY   40  33  75 NE5       30.40S
MARION         CLOUDY    41  32  70 SE5       30.38S
CENTRALIA*     CLOUDY    40  35  80 CALM      30.37F
SALEM*         MOSUNNY   41  34  75 SE3       30.38S
METROPOLIS*    CLOUDY    41  33  72 CALM      30.39S
$$

ILZ067-068-072-073-078-083-087-091-031700-
SOUTHEAST ILLINOIS

CITY           SKY/WX    TMP DP  RH WIND       PRES   REMARKS
LAWRENCEVILLE  CLOUDY    41  31  67 NE7       30.39R
FLORA*         CLOUDY    42  35  78 E3        30.38F
FAIRFIELD*     CLOUDY    38  34  83 CALM      30.38S
HARRISBURG*    CLOUDY    39  35  86 CALM      30.39F
ROBINSON*      CLOUDY    39  29  67 NE3       30.41R
CARMI*         CLOUDY    37  34  89 CALM      30.38S
$$

ABBREVIATIONS USED IN REMARKS
   TC - TEMPERATURE IN CELSIUS
  WCI - WIND CHILL INDEX
   HX - HEAT INDEX
  VSB - VISIBILITY
$$





USA.gov is the U.S. government's official web portal to all federal, state and local government web resources and services.